SORCE

Last updated on Mon Sep 07 2026 00:02:52 GMT+0000 (Coordinated Universal Time)

1 27651U 03004A 26249.15430724 .00001614 00000+0 12505-3 0 9994 2 27651 39.9907 159.5917 0018759 273.0736 86.7912 15.04072316284090
UTC large
Height (km)
Speed (km/s)
/
Latitude / Longitude
Inclination (degrees)
Orbital Period (minutes)
Azimuth
Elevation
Range (km)
Doppler Factor

Next 0 passes for location: London (51.5072 / 0.1276)

No passes found over London.
SORCE